Time,TemperatureF,DewpointF,PressureIn,WindDirection,WindDirectionDegrees,WindSpeedMPH,WindSpeedGustMPH,Humidity,HourlyPrecipIn,Conditions,Clouds,dailyrainin,SoftwareType,DateUTC
2013-06-11 00:32:00,62.0,-99.9,-100.00,WNW,297,7.0,19.0,-999,-99.99,,,-99.99,,2013-06-11 07:32:00,
2013-06-11 00:42:00,62.0,-99.9,-100.00,WNW,297,7.0,19.0,-999,-99.99,,,-99.99,,2013-06-11 07:42:00,
2013-06-11 00:52:00,62.0,-99.9,-100.00,WNW,297,7.0,19.0,-999,-99.99,,,-99.99,,2013-06-11 07:52:00,
2013-06-11 01:00:00,60.0,-99.9,-100.00,West,270,13.0,22.0,-999,-99.99,,,-99.99,,2013-06-11 08:00:00,
2013-06-11 01:03:00,61.0,-99.9,-100.00,West,273,16.0,18.0,-999,-99.99,,,-99.99,,2013-06-11 08:03:00,
2013-06-11 01:12:00,61.0,-99.9,-100.00,West,273,16.0,18.0,-999,-99.99,,,-99.99,,2013-06-11 08:12:00,
2013-06-11 01:22:00,61.0,-99.9,-100.00,West,273,16.0,18.0,-999,-99.99,,,-99.99,,2013-06-11 08:22:00,
2013-06-11 01:32:00,60.0,-99.9,-100.00,West,270,13.0,22.0,-999,-99.99,,,-99.99,,2013-06-11 08:32:00,
2013-06-11 01:42:00,60.0,-99.9,-100.00,West,270,13.0,22.0,-999,-99.99,,,-99.99,,2013-06-11 08:42:00,
2013-06-11 01:52:00,60.0,-99.9,-100.00,West,270,13.0,22.0,-999,-99.99,,,-99.99,,2013-06-11 08:52:00,
2013-06-11 02:00:00,57.0,-99.9,-100.00,West,269,11.0,26.0,-999,-99.99,,,-99.99,,2013-06-11 09:00:00,
2013-06-11 02:22:00,58.0,-99.9,-100.00,West,281,9.0,18.0,-999,-99.99,,,-99.99,,2013-06-11 09:22:00,
2013-06-11 02:33:00,57.0,-99.9,-100.00,West,269,11.0,26.0,-999,-99.99,,,-99.99,,2013-06-11 09:33:00,
2013-06-11 02:43:00,57.0,-99.9,-100.00,West,269,11.0,26.0,-999,-99.99,,,-99.99,,2013-06-11 09:43:00,
2013-06-11 02:53:00,57.0,-99.9,-100.00,West,269,11.0,26.0,-999,-99.99,,,-99.99,,2013-06-11 09:53:00,
2013-06-11 03:33:00,58.0,-99.9,-100.00,West,263,9.0,19.0,-999,-99.99,,,-99.99,,2013-06-11 10:33:00,
2013-06-11 03:43:00,58.0,-99.9,-100.00,West,263,9.0,19.0,-999,-99.99,,,-99.99,,2013-06-11 10:43:00,
2013-06-11 03:52:00,55.0,-99.9,-100.00,WSW,241,8.0,19.0,-999,-99.99,,,-99.99,,2013-06-11 10:52:00,
2013-06-11 04:00:00,55.0,-99.9,-100.00,West,270,10.0,13.0,-999,-99.99,,,-99.99,,2013-06-11 11:00:00,
2013-06-11 04:02:00,55.0,-99.9,-100.00,WSW,241,8.0,19.0,-999,-99.99,,,-99.99,,2013-06-11 11:02:00,
2013-06-11 04:22:00,54.0,-99.9,-100.00,WSW,256,8.0,19.0,-999,-99.99,,,-99.99,,2013-06-11 11:22:00,
2013-06-11 04:32:00,55.0,-99.9,-100.00,West,270,10.0,13.0,-999,-99.99,,,-99.99,,2013-06-11 11:32:00,
2013-06-11 04:42:00,55.0,-99.9,-100.00,West,270,10.0,13.0,-999,-99.99,,,-99.99,,2013-06-11 11:42:00,
2013-06-11 04:52:00,55.0,-99.9,-100.00,West,270,10.0,13.0,-999,-99.99,,,-99.99,,2013-06-11 11:52:00,
2013-06-11 05:32:00,54.0,-99.9,-100.00,WSW,250,9.0,18.0,-999,-99.99,,,-99.99,,2013-06-11 12:32:00,
2013-06-11 05:42:00,54.0,-99.9,-100.00,WSW,250,9.0,18.0,-999,-99.99,,,-99.99,,2013-06-11 12:42:00,
2013-06-11 05:52:00,54.0,-99.9,-100.00,WSW,250,9.0,18.0,-999,-99.99,,,-99.99,,2013-06-11 12:52:00,
2013-06-11 06:00:00,54.0,-99.9,-100.00,West,260,7.0,12.0,-999,-99.99,,,-99.99,,2013-06-11 13:00:00,
2013-06-11 06:02:00,56.0,-99.9,-100.00,West,260,9.0,12.0,-999,-99.99,,,-99.99,,2013-06-11 13:02:00,
2013-06-11 06:12:00,56.0,-99.9,-100.00,West,260,9.0,12.0,-999,-99.99,,,-99.99,,2013-06-11 13:12:00,
2013-06-11 06:22:00,56.0,-99.9,-100.00,West,260,9.0,12.0,-999,-99.99,,,-99.99,,2013-06-11 13:22:00,
2013-06-11 06:32:00,54.0,-99.9,-100.00,West,260,7.0,12.0,-999,-99.99,,,-99.99,,2013-06-11 13:32:00,
2013-06-11 06:42:00,54.0,-99.9,-100.00,West,260,7.0,12.0,-999,-99.99,,,-99.99,,2013-06-11 13:42:00,
2013-06-11 06:52:00,54.0,-99.9,-100.00,West,260,7.0,12.0,-999,-99.99,,,-99.99,,2013-06-11 13:52:00,
2013-06-11 07:32:00,58.0,-99.9,-100.00,WSW,246,5.0,13.0,-999,-99.99,,,-99.99,,2013-06-11 14:32:00,
2013-06-11 07:42:00,58.0,-99.9,-100.00,WSW,246,5.0,13.0,-999,-99.99,,,-99.99,,2013-06-11 14:42:00,
2013-06-11 07:53:00,58.0,-99.9,-100.00,WSW,246,5.0,13.0,-999,-99.99,,,-99.99,,2013-06-11 14:53:00,
2013-06-11 08:00:00,58.0,-99.9,-100.00,West,263,12.0,14.0,-999,-99.99,,,-99.99,,2013-06-11 15:00:00,
2013-06-11 08:02:00,57.0,-99.9,-100.00,WSW,247,12.0,17.0,-999,-99.99,,,-99.99,,2013-06-11 15:02:00,
2013-06-11 08:12:00,57.0,-99.9,-100.00,WSW,247,12.0,17.0,-999,-99.99,,,-99.99,,2013-06-11 15:12:00,
2013-06-11 08:22:00,56.0,-99.9,-100.00,SW,224,5.0,11.0,-999,-99.99,,,-99.99,,2013-06-11 15:22:00,
2013-06-11 08:33:00,58.0,-99.9,-100.00,West,263,12.0,14.0,-999,-99.99,,,-99.99,,2013-06-11 15:33:00,
2013-06-11 08:43:00,58.0,-99.9,-100.00,West,263,12.0,14.0,-999,-99.99,,,-99.99,,2013-06-11 15:43:00,
2013-06-11 08:53:00,58.0,-99.9,-100.00,West,263,12.0,14.0,-999,-99.99,,,-99.99,,2013-06-11 15:53:00,
2013-06-11 09:33:00,56.0,-99.9,-100.00,West,273,17.0,24.0,-999,-99.99,,,-99.99,,2013-06-11 16:33:00,
2013-06-11 09:42:00,56.0,-99.9,-100.00,West,273,17.0,24.0,-999,-99.99,,,-99.99,,2013-06-11 16:42:00,
2013-06-11 09:53:00,59.0,-99.9,-100.00,West,266,13.0,21.0,-999,-99.99,,,-99.99,,2013-06-11 16:53:00,
2013-06-11 10:00:00,59.0,-99.9,-100.00,West,273,7.0,15.0,-999,-99.99,,,-99.99,,2013-06-11 17:00:00,
2013-06-11 10:02:00,59.0,-99.9,-100.00,West,272,16.0,19.0,-999,-99.99,,,-99.99,,2013-06-11 17:02:00,
2013-06-11 10:12:00,59.0,-99.9,-100.00,West,272,16.0,19.0,-999,-99.99,,,-99.99,,2013-06-11 17:12:00,
2013-06-11 10:32:00,57.0,-99.9,-100.00,West,278,7.0,16.0,-999,-99.99,,,-99.99,,2013-06-11 17:32:00,
2013-06-11 10:43:00,57.0,-99.9,-100.00,West,278,7.0,16.0,-999,-99.99,,,-99.99,,2013-06-11 17:43:00,
2013-06-11 10:53:00,59.0,-99.9,-100.00,West,273,7.0,15.0,-999,-99.99,,,-99.99,,2013-06-11 17:53:00,
2013-06-11 11:53:00,61.0,-99.9,-100.00,West,278,11.0,20.0,-999,-99.99,,,-99.99,,2013-06-11 18:53:00,
2013-06-11 12:03:00,61.0,-99.9,-100.00,West,278,11.0,20.0,-999,-99.99,,,-99.99,,2013-06-11 19:03:00,
2013-06-11 12:13:00,61.0,-99.9,-100.00,West,278,11.0,20.0,-999,-99.99,,,-99.99,,2013-06-11 19:13:00,
2013-06-11 12:33:00,62.0,-99.9,-100.00,WNW,286,5.0,16.0,-999,-99.99,,,-99.99,,2013-06-11 19:33:00,
2013-06-11 12:42:00,62.0,-99.9,-100.00,WNW,286,5.0,16.0,-999,-99.99,,,-99.99,,2013-06-11 19:42:00,
2013-06-11 12:53:00,61.0,-99.9,-100.00,West,264,10.0,18.0,-999,-99.99,,,-99.99,,2013-06-11 19:53:00,
2013-06-11 13:00:00,64.0,-99.9,-100.00,West,278,2.0,15.0,-999,-99.99,,,-99.99,,2013-06-11 20:00:00,
2013-06-11 13:03:00,61.0,-99.9,-100.00,West,264,10.0,18.0,-999,-99.99,,,-99.99,,2013-06-11 20:03:00,
2013-06-11 13:22:00,61.0,-99.9,-100.00,West,271,10.0,18.0,-999,-99.99,,,-99.99,,2013-06-11 20:22:00,
2013-06-11 13:32:00,64.0,-99.9,-100.00,West,278,2.0,15.0,-999,-99.99,,,-99.99,,2013-06-11 20:32:00,
2013-06-11 13:42:00,64.0,-99.9,-100.00,West,278,2.0,15.0,-999,-99.99,,,-99.99,,2013-06-11 20:42:00,
2013-06-11 13:52:00,64.0,-99.9,-100.00,West,278,2.0,15.0,-999,-99.99,,,-99.99,,2013-06-11 20:52:00,
2013-06-11 14:33:00,64.0,-99.9,-100.00,West,269,11.0,19.0,-999,-99.99,,,-99.99,,2013-06-11 21:33:00,
2013-06-11 14:43:00,64.0,-99.9,-100.00,West,269,11.0,19.0,-999,-99.99,,,-99.99,,2013-06-11 21:43:00,
2013-06-11 14:53:00,64.0,-99.9,-100.00,West,269,11.0,19.0,-999,-99.99,,,-99.99,,2013-06-11 21:53:00,
2013-06-11 15:00:00,64.0,-99.9,-100.00,West,271,8.0,11.0,-999,-99.99,,,-99.99,,2013-06-11 22:00:00,
2013-06-11 15:03:00,63.0,-99.9,-100.00,NW,314,8.0,16.0,-999,-99.99,,,-99.99,,2013-06-11 22:03:00,
2013-06-11 15:13:00,63.0,-99.9,-100.00,NW,314,8.0,16.0,-999,-99.99,,,-99.99,,2013-06-11 22:13:00,
2013-06-11 15:22:00,63.0,-99.9,-100.00,NW,314,8.0,16.0,-999,-99.99,,,-99.99,,2013-06-11 22:22:00,
2013-06-11 15:33:00,64.0,-99.9,-100.00,West,271,8.0,11.0,-999,-99.99,,,-99.99,,2013-06-11 22:33:00,
2013-06-11 15:42:00,64.0,-99.9,-100.00,West,271,8.0,11.0,-999,-99.99,,,-99.99,,2013-06-11 22:42:00,
2013-06-11 15:52:00,64.0,-99.9,-100.00,West,271,8.0,11.0,-999,-99.99,,,-99.99,,2013-06-11 22:52:00,
2013-06-11 16:20:00,64.0,-99.9,-100.00,West,266,12.0,14.0,-999,-99.99,,,-99.99,,2013-06-11 23:20:00,
2013-06-11 16:32:00,65.0,-99.9,-100.00,WSW,239,7.0,16.0,-999,-99.99,,,-99.99,,2013-06-11 23:32:00,
2013-06-11 16:43:00,65.0,-99.9,-100.00,WSW,239,7.0,16.0,-999,-99.99,,,-99.99,,2013-06-11 23:43:00,
2013-06-11 16:52:00,65.0,-99.9,-100.00,WSW,239,7.0,16.0,-999,-99.99,,,-99.99,,2013-06-11 23:52:00,
2013-06-11 17:02:00,64.0,-99.9,-100.00,West,266,12.0,14.0,-999,-99.99,,,-99.99,,2013-06-12 00:02:00,
2013-06-11 17:10:00,63.0,-99.9,-100.00,West,262,11.0,18.0,-999,-99.99,,,-99.99,,2013-06-12 00:10:00,
2013-06-11 17:12:00,64.0,-99.9,-100.00,West,266,12.0,14.0,-999,-99.99,,,-99.99,,2013-06-12 00:12:00,
2013-06-11 17:52:00,63.0,-99.9,-100.00,West,262,11.0,18.0,-999,-99.99,,,-99.99,,2013-06-12 00:52:00,
2013-06-11 18:02:00,63.0,-99.9,-100.00,West,262,11.0,18.0,-999,-99.99,,,-99.99,,2013-06-12 01:02:00,
2013-06-11 18:20:00,62.0,-99.9,-100.00,NW,320,5.0,12.0,-999,-99.99,,,-99.99,,2013-06-12 01:20:00,
2013-06-11 18:32:00,61.0,-99.9,-100.00,West,272,7.0,15.0,-999,-99.99,,,-99.99,,2013-06-12 01:32:00,
2013-06-11 18:42:00,61.0,-99.9,-100.00,West,272,7.0,15.0,-999,-99.99,,,-99.99,,2013-06-12 01:42:00,
2013-06-11 18:52:00,62.0,-99.9,-100.00,West,260,11.0,11.0,-999,-99.99,,,-99.99,,2013-06-12 01:52:00,
2013-06-11 19:00:00,64.0,-99.9,-100.00,SW,230,9.0,13.0,-999,-99.99,,,-99.99,,2013-06-12 02:00:00,
2013-06-11 19:02:00,62.0,-99.9,-100.00,NW,320,5.0,12.0,-999,-99.99,,,-99.99,,2013-06-12 02:02:00,
2013-06-11 19:12:00,62.0,-99.9,-100.00,NW,320,5.0,12.0,-999,-99.99,,,-99.99,,2013-06-12 02:12:00,
2013-06-11 19:32:00,64.0,-99.9,-100.00,SW,230,9.0,13.0,-999,-99.99,,,-99.99,,2013-06-12 02:32:00,
2013-06-11 19:42:00,64.0,-99.9,-100.00,SW,230,9.0,13.0,-999,-99.99,,,-99.99,,2013-06-12 02:42:00,
2013-06-11 19:52:00,64.0,-99.9,-100.00,SW,230,9.0,13.0,-999,-99.99,,,-99.99,,2013-06-12 02:52:00,
2013-06-11 20:33:00,60.0,-99.9,-100.00,West,275,10.0,10.0,-999,-99.99,,,-99.99,,2013-06-12 03:33:00,
2013-06-11 20:43:00,60.0,-99.9,-100.00,West,275,10.0,10.0,-999,-99.99,,,-99.99,,2013-06-12 03:43:00,
2013-06-11 20:54:00,59.0,-99.9,-100.00,SW,228,10.0,13.0,-999,-99.99,,,-99.99,,2013-06-12 03:54:00,
2013-06-11 21:00:00,60.0,-99.9,-100.00,West,270,11.0,17.0,-999,-99.99,,,-99.99,,2013-06-12 04:00:00,
2013-06-11 21:03:00,59.0,-99.9,-100.00,SW,228,10.0,13.0,-999,-99.99,,,-99.99,,2013-06-12 04:03:00,
2013-06-11 21:34:00,60.0,-99.9,-100.00,West,270,11.0,17.0,-999,-99.99,,,-99.99,,2013-06-12 04:34:00,
2013-06-11 21:43:00,60.0,-99.9,-100.00,West,270,11.0,17.0,-999,-99.99,,,-99.99,,2013-06-12 04:43:00,
2013-06-11 21:53:00,60.0,-99.9,-100.00,West,270,11.0,17.0,-999,-99.99,,,-99.99,,2013-06-12 04:53:00,
2013-06-11 22:00:00,57.0,-99.9,-100.00,West,262,9.0,19.0,-999,-99.99,,,-99.99,,2013-06-12 05:00:00,
2013-06-11 22:22:00,57.0,-99.9,-100.00,West,263,12.0,15.0,-999,-99.99,,,-99.99,,2013-06-12 05:22:00,
2013-06-11 22:32:00,57.0,-99.9,-100.00,West,262,9.0,19.0,-999,-99.99,,,-99.99,,2013-06-12 05:32:00,
2013-06-11 22:43:00,57.0,-99.9,-100.00,West,262,9.0,19.0,-999,-99.99,,,-99.99,,2013-06-12 05:43:00,
2013-06-11 22:52:00,57.0,-99.9,-100.00,West,262,9.0,19.0,-999,-99.99,,,-99.99,,2013-06-12 05:52:00,
2013-06-11 23:00:00,57.0,-99.9,-100.00,NW,304,2.0,8.0,-999,-99.99,,,-99.99,,2013-06-12 06:00:00,
2013-06-11 23:32:00,57.0,-99.9,-100.00,NW,304,2.0,8.0,-999,-99.99,,,-99.99,,2013-06-12 06:32:00,
2013-06-11 23:42:00,57.0,-99.9,-100.00,NW,304,2.0,8.0,-999,-99.99,,,-99.99,,2013-06-12 06:42:00,
2013-06-11 23:52:00,57.0,-99.9,-100.00,NW,304,2.0,8.0,-999,-99.99,,,-99.99,,2013-06-12 06:52:00,